Regional Weather Roundup
Issued by NWS

Home | Current Version | Previous Version | Graphics & Text | Print | Product List | Glossary On
Versions: 1 2 3 4 5 6 7 8 9 10 11 12 13 14 15 16 17 18 19 20 21 22 23 24 25 26 27 28 29 30 31 32 33 34 35 36 37 38 39 40 41 42 43 44 45 46 47 48 49 50
000
ASUS44 KMEG 200110
RWRTN
TENNESSEE HOURLY STATE WEATHER ROUNDUP
NATIONAL WEATHER SERVICE MEMPHIS TN
800 PM CDT THU APR 19 2018

TNZ002-004-019-021-049-052-054-088>092-200200-
WEST TENNESSEE

CITY           SKY/WX    TMP DP  RH WIND       PRES   REMARKS
MEMPHIS INTL   FAIR      49  31  49 N12       30.35R
NWS MEMPHIS      N/A     49 N/A N/A MISG        N/A
JACKSON        FAIR      50  34  54 NE10      30.34R
DYERSBURG      FAIR      48  34  58 N8        30.37R
SOMERVILLE       N/A     48  32  53 N7        30.32S
COVINGTON      CLEAR     48  34  57 NE9       30.36R
UNION CITY     CLEAR     48  34  57 NE8       30.36S
BOLIVAR        CLEAR     48  32  53 CALM      30.33R
PARIS          CLEAR     46  32  57 N7        30.36R
HUNTINGDON     CLEAR     46  32  57 N6        30.35R
LEXINGTON      CLEAR     50  30  46 N7        30.33R
SELMER         CLEAR     46  32  57 N5        30.31R
SAVANNAH       CLEAR     50  32  50 N7        30.31R
$$

TNZ008-025-027-028-033-062-065-066-200200-
NORTH MIDDLE TENNESSEE

CITY           SKY/WX    TMP DP  RH WIND       PRES   REMARKS
NASHVILLE      FAIR      47  31  53 N8        30.34R
PORTLAND       CLEAR     45  32  61 N5        30.33R
CLARKSVILLE    FAIR      43  32  65 N7        30.36R
SMYRNA         FAIR      47  32  56 N10       30.34R
COOKEVILLE     CLEAR     45  30  57 NE6       30.30R
LIVINGSTON     MOCLDY    41  30  65 N6        30.30R
GALLATIN       CLEAR     46  32  57 N6        30.37R
CROSSVILLE     FAIR      40  27  59 N12       30.28R WCI  33
ROCKWOOD       CLEAR     43  28  56 N10G21    30.26R
$$

TNZ061-075-076-078-094-096-097-200200-
SOUTH MIDDLE TENNESSEE

CITY           SKY/WX    TMP DP  RH WIND       PRES   REMARKS
LEWISBURG      PTCLDY    46  32  57 N9        30.31R
FAYETTEVILLE   CLEAR     46  32  57 N9        30.27R
TULLAHOMA      CLEAR     45  32  61 N8        30.27R
WINCHESTER     CLEAR     46  30  53 NE13      30.26R
MCMINNVILLE    CLEAR     45  32  61 N9        30.29R
COLUMBIA       CLEAR     46  30  53 N9        30.31R
SHELBYVILLE    CLEAR     45  34  65 N8        30.30R
$$

TNZ017-018-042-046-047-200200-
NORTHEAST TENNESSEE

CITY           SKY/WX    TMP DP  RH WIND       PRES   REMARKS
TRI CITIES     FAIR      40  29  64 N6        30.27R
ELIZABETHTON   FAIR      43  27  52 N8        30.27R
$$

TNZ012-013-036-069-073-074-200200-
CENTRAL EAST TENNESSEE

CITY           SKY/WX    TMP DP  RH WIND       PRES   REMARKS
KNOXVILLE      FAIR      46  30  53 N14       30.26R
OAK RIDGE      FAIR      46  30  53 MISG      30.30R
DOWNTOWN KNOXV CLEAR     46  30  53 VRB7      30.29R
GATLINBURG     CLEAR     46  30  53 N7        30.28R
MORRISTOWN     CLEAR     43  28  56 N10       30.28R
JACKSBORO      CLEAR     43  28  56 N6G14     30.34R
$$

TNZ083-085-099-200200-
SOUTHEAST TENNESSEE

CITY           SKY/WX    TMP DP  RH WIND       PRES   REMARKS
CHATTANOOGA    FAIR      50  31  48 NW8       30.24R
DAYTON         PTCLDY    50  34  53 N12       30.26R
$$

SKY/WX REPORTED AS FAIR MEANS FEW OR NO CLOUDS BELOW
12 THOUSAND FEET.




USA.gov is the U.S. government's official web portal to all federal, state and local government web resources and services.